User: anonymous   Login
Location: Hancock Field Station
(44.9202°N, 120.4259°W)
Time: 00:41:57
(UTC-08:00)
Language:

Nadezhda 4 Rocket - Orbit

View from above orbital plane
View from above orbital plane
View from above satellite
View from above satellite

Ground track
Ground track

The orbit data is extracted from the following two-line orbital elements,

1 23180U 94041B   16041.78174131  .00000092  00000-0  76013-4 0  9998
2 23180  82.9471 297.4408 0029191 162.6091 257.3433 13.77915446 85094
Epoch (UTC): 10 February 2016 18:45:42
Eccentricity: 0.0029191
inclination: 82.9471°
perigee height: 950 km
apogee height: 993 km
right ascension of ascending node: 297.4408°
argument of perigee: 162.6091°
revolutions per day: 13.77915446
mean anomaly at epoch: 257.3433°
orbit number at epoch: 8509

The dashed part of the orbit path shows where the satellite is in the earth's shadow,  

DLR